Time,TemperatureF,DewpointF,PressureIn,WindDirection,WindDirectionDegrees,WindSpeedMPH,WindSpeedGustMPH,Humidity,HourlyPrecipIn,Conditions,Clouds,dailyrainin,SoftwareType,DateUTC
2013-03-08 00:02:00,33.0,27.0,30.45,North,3,0.0,0.0,79,0.00,,,0.08,,2013-03-08 05:02:00,
2013-03-08 00:12:00,33.0,27.0,30.45,North,3,0.0,0.0,79,0.00,,,0.08,,2013-03-08 05:12:00,
2013-03-08 00:22:00,33.0,27.0,30.46,North,3,0.0,0.0,79,0.00,,,0.08,,2013-03-08 05:22:00,
2013-03-08 00:32:00,33.0,27.0,30.46,North,3,1.0,3.0,78,0.00,,,0.08,,2013-03-08 05:32:00,
2013-03-08 00:42:00,33.0,27.0,30.46,North,3,1.0,3.0,78,0.00,,,0.08,,2013-03-08 05:42:00,
2013-03-08 00:52:00,33.0,27.0,30.46,North,349,0.0,0.0,78,0.00,,,0.08,,2013-03-08 05:52:00,
2013-03-08 01:01:00,34.0,28.0,30.46,North,349,0.0,0.0,78,0.00,,,0.08,,2013-03-08 06:01:00,
2013-03-08 01:11:00,34.0,28.0,30.46,North,349,0.0,0.0,78,0.00,,,0.08,,2013-03-08 06:11:00,
2013-03-08 01:22:00,33.0,27.0,30.46,North,349,0.0,0.0,78,0.00,,,0.08,,2013-03-08 06:22:00,
2013-03-08 01:32:00,32.0,26.0,30.46,North,349,1.0,5.0,79,0.00,,,0.08,,2013-03-08 06:32:00,
2013-03-08 01:42:00,32.0,26.0,30.46,North,349,1.0,5.0,79,0.00,,,0.08,,2013-03-08 06:42:00,
2013-03-08 01:52:00,32.0,26.0,30.47,North,350,0.0,0.0,79,0.00,,,0.08,,2013-03-08 06:52:00,
2013-03-08 02:01:00,33.0,27.0,30.47,North,0,0.0,0.0,79,0.00,,,0.08,,2013-03-08 07:01:00,
2013-03-08 02:11:00,33.0,27.0,30.47,North,0,0.0,0.0,79,0.00,,,0.08,,2013-03-08 07:11:00,
2013-03-08 02:22:00,32.0,26.0,30.47,North,0,0.0,0.0,79,0.00,,,0.08,,2013-03-08 07:22:00,
2013-03-08 02:32:00,32.0,26.0,30.47,North,0,0.0,0.0,79,0.00,,,0.08,,2013-03-08 07:32:00,
2013-03-08 02:42:00,32.0,26.0,30.47,North,0,0.0,0.0,79,0.00,,,0.08,,2013-03-08 07:42:00,
2013-03-08 02:52:00,32.0,26.0,30.47,North,0,0.0,0.0,79,0.00,,,0.08,,2013-03-08 07:52:00,
2013-03-08 03:01:00,32.0,26.0,30.47,North,0,0.0,0.0,79,0.00,,,0.08,,2013-03-08 08:01:00,
2013-03-08 03:11:00,32.0,27.0,30.47,North,0,0.0,0.0,81,0.00,,,0.08,,2013-03-08 08:11:00,
2013-03-08 03:22:00,32.0,27.0,30.47,North,0,0.0,0.0,81,0.00,,,0.08,,2013-03-08 08:22:00,
2013-03-08 03:32:00,32.0,27.0,30.47,North,0,0.0,0.0,81,0.00,,,0.08,,2013-03-08 08:32:00,
2013-03-08 03:42:00,32.0,27.0,30.47,North,0,0.0,0.0,81,0.00,,,0.08,,2013-03-08 08:42:00,
2013-03-08 03:52:00,31.0,26.0,30.46,North,0,0.0,0.0,81,0.00,,,0.08,,2013-03-08 08:52:00,
2013-03-08 04:03:00,31.0,26.0,30.47,North,0,0.0,0.0,81,0.00,,,0.08,,2013-03-08 09:03:00,
2013-03-08 04:11:00,31.0,26.0,30.47,North,0,0.0,0.0,81,0.00,,,0.08,,2013-03-08 09:11:00,
2013-03-08 04:21:00,30.0,25.0,30.47,North,6,0.0,0.0,82,0.00,,,0.08,,2013-03-08 09:21:00,
2013-03-08 04:32:00,31.0,26.0,30.47,North,8,3.0,3.0,82,0.00,,,0.08,,2013-03-08 09:32:00,
2013-03-08 04:42:00,31.0,26.0,30.47,North,8,3.0,3.0,82,0.00,,,0.08,,2013-03-08 09:42:00,
2013-03-08 04:52:00,30.0,26.0,30.47,North,2,2.0,7.0,84,0.00,,,0.08,,2013-03-08 09:52:00,
2013-03-08 05:01:00,30.0,26.0,30.47,North,359,3.0,5.0,84,0.00,,,0.08,,2013-03-08 10:01:00,
2013-03-08 05:11:00,30.0,26.0,30.47,North,359,3.0,5.0,84,0.00,,,0.08,,2013-03-08 10:11:00,
2013-03-08 05:21:00,30.0,26.0,30.47,North,6,0.0,0.0,84,0.00,,,0.08,,2013-03-08 10:21:00,
2013-03-08 05:32:00,30.0,26.0,30.48,North,357,1.0,0.0,84,0.00,,,0.08,,2013-03-08 10:32:00,
2013-03-08 05:42:00,30.0,26.0,30.48,North,357,1.0,0.0,84,0.00,,,0.08,,2013-03-08 10:42:00,
2013-03-08 05:52:00,30.0,26.0,30.49,North,357,0.0,0.0,84,0.00,,,0.08,,2013-03-08 10:52:00,
2013-03-08 06:01:00,29.0,25.0,30.49,North,357,0.0,0.0,84,0.00,,,0.08,,2013-03-08 11:01:00,
2013-03-08 06:11:00,29.0,25.0,30.49,North,357,0.0,0.0,84,0.00,,,0.08,,2013-03-08 11:11:00,
2013-03-08 06:21:00,29.0,25.0,30.51,North,357,0.0,0.0,84,0.00,,,0.08,,2013-03-08 11:21:00,
2013-03-08 06:32:00,29.0,25.0,30.51,North,357,0.0,0.0,84,0.00,,,0.08,,2013-03-08 11:32:00,
2013-03-08 06:42:00,29.0,25.0,30.51,North,357,0.0,0.0,84,0.00,,,0.08,,2013-03-08 11:42:00,
2013-03-08 06:52:00,29.0,25.0,30.52,North,357,0.0,0.0,85,0.00,,,0.08,,2013-03-08 11:52:00,
2013-03-08 07:02:00,29.0,25.0,30.52,North,357,0.0,0.0,85,0.00,,,0.08,,2013-03-08 12:02:00,
2013-03-08 07:11:00,29.0,25.0,30.52,North,357,0.0,0.0,85,0.00,,,0.08,,2013-03-08 12:11:00,
2013-03-08 07:22:00,28.0,24.0,30.52,North,357,0.0,0.0,85,0.00,,,0.08,,2013-03-08 12:22:00,
2013-03-08 07:32:00,28.0,24.0,30.52,North,357,0.0,0.0,85,0.00,,,0.08,,2013-03-08 12:32:00,
2013-03-08 07:43:00,28.0,24.0,30.52,North,357,0.0,0.0,85,0.00,,,0.08,,2013-03-08 12:43:00,
2013-03-08 07:53:00,28.0,25.0,30.52,North,357,0.0,0.0,87,0.00,,,0.08,,2013-03-08 12:53:00,
2013-03-08 08:01:00,27.0,24.0,30.52,North,357,0.0,0.0,87,0.00,,,0.08,,2013-03-08 13:01:00,
2013-03-08 08:11:00,27.0,24.0,30.52,North,357,0.0,0.0,87,0.00,,,0.08,,2013-03-08 13:11:00,
2013-03-08 08:22:00,28.0,25.0,30.52,North,357,0.0,0.0,88,0.00,,,0.08,,2013-03-08 13:22:00,
2013-03-08 08:32:00,29.0,26.0,30.53,North,2,0.0,3.0,88,0.00,,,0.08,,2013-03-08 13:32:00,
2013-03-08 08:42:00,29.0,26.0,30.53,North,2,0.0,3.0,88,0.00,,,0.08,,2013-03-08 13:42:00,
2013-03-08 08:52:00,30.0,27.0,30.53,NNE,21,0.0,0.0,88,0.00,,,0.08,,2013-03-08 13:52:00,
2013-03-08 09:02:00,30.0,27.0,30.53,NNE,23,1.0,5.0,88,0.00,,,0.08,,2013-03-08 14:02:00,
2013-03-08 09:11:00,30.0,27.0,30.53,NNE,23,1.0,5.0,88,0.00,,,0.08,,2013-03-08 14:11:00,
2013-03-08 09:22:00,31.0,28.0,30.54,North,6,0.0,5.0,87,0.00,,,0.08,,2013-03-08 14:22:00,
2013-03-08 09:32:00,32.0,29.0,30.54,East,93,0.0,0.0,87,0.00,,,0.08,,2013-03-08 14:32:00,
2013-03-08 09:42:00,32.0,29.0,30.54,East,93,0.0,0.0,87,0.00,,,0.08,,2013-03-08 14:42:00,
2013-03-08 09:53:00,33.0,30.0,30.55,East,88,1.0,6.0,87,0.00,,,0.08,,2013-03-08 14:53:00,
2013-03-08 10:03:00,33.0,30.0,30.55,East,94,1.0,5.0,87,0.00,,,0.08,,2013-03-08 15:03:00,
2013-03-08 10:12:00,34.0,30.0,30.55,NNE,16,0.0,0.0,84,0.00,,,0.08,,2013-03-08 15:12:00,
2013-03-08 10:22:00,34.0,30.0,30.55,NNE,16,0.0,0.0,84,0.00,,,0.08,,2013-03-08 15:22:00,
2013-03-08 10:32:00,35.0,31.0,30.55,East,80,3.0,7.0,84,0.00,,,0.08,,2013-03-08 15:32:00,
2013-03-08 10:42:00,35.0,31.0,30.55,East,80,3.0,7.0,84,0.00,,,0.08,,2013-03-08 15:42:00,
2013-03-08 10:53:00,35.0,30.0,30.55,NE,55,6.0,8.0,81,0.00,,,0.08,,2013-03-08 15:53:00,
2013-03-08 11:01:00,36.0,31.0,30.55,NE,43,2.0,5.0,81,0.00,,,0.08,,2013-03-08 16:01:00,
2013-03-08 11:11:00,36.0,29.0,30.54,NE,56,3.0,6.0,76,0.00,,,0.08,,2013-03-08 16:11:00,
2013-03-08 11:22:00,36.0,29.0,30.54,NE,56,3.0,6.0,76,0.00,,,0.08,,2013-03-08 16:22:00,
2013-03-08 11:32:00,37.0,30.0,30.54,East,99,3.0,6.0,75,0.00,,,0.08,,2013-03-08 16:32:00,
2013-03-08 11:42:00,37.0,30.0,30.54,East,99,3.0,6.0,75,0.00,,,0.08,,2013-03-08 16:42:00,
2013-03-08 11:52:00,38.0,30.0,30.54,East,95,3.0,8.0,72,0.00,,,0.07,,2013-03-08 16:52:00,
2013-03-08 12:03:00,38.0,29.0,30.54,NNE,21,5.0,6.0,70,0.00,,,0.07,,2013-03-08 17:03:00,
2013-03-08 12:11:00,38.0,29.0,30.54,NNE,21,5.0,6.0,70,0.00,,,0.07,,2013-03-08 17:11:00,
2013-03-08 12:21:00,38.0,28.0,30.53,NE,46,2.0,8.0,67,0.00,,,0.07,,2013-03-08 17:21:00,
2013-03-08 12:32:00,38.0,28.0,30.53,ENE,72,3.0,8.0,66,0.00,,,0.06,,2013-03-08 17:32:00,
2013-03-08 12:42:00,38.0,28.0,30.53,ENE,72,3.0,8.0,66,0.00,,,0.06,,2013-03-08 17:42:00,
2013-03-08 12:52:00,39.0,28.0,30.53,East,82,6.0,10.0,65,0.00,,,0.05,,2013-03-08 17:52:00,
2013-03-08 13:02:00,39.0,27.0,30.53,ENE,64,5.0,7.0,63,0.00,,,0.04,,2013-03-08 18:02:00,
2013-03-08 13:11:00,39.0,27.0,30.53,ENE,64,5.0,7.0,63,0.00,,,0.04,,2013-03-08 18:11:00,
2013-03-08 13:21:00,40.0,28.0,30.52,ESE,108,6.0,8.0,63,0.00,,,0.03,,2013-03-08 18:21:00,
2013-03-08 13:32:00,40.0,28.0,30.52,NE,49,1.0,6.0,62,0.00,,,0.02,,2013-03-08 18:32:00,
2013-03-08 13:42:00,40.0,28.0,30.52,NE,49,1.0,6.0,62,0.00,,,0.02,,2013-03-08 18:42:00,
2013-03-08 13:52:00,41.0,29.0,30.52,ESE,102,0.0,0.0,61,0.00,,,0.01,,2013-03-08 18:52:00,
2013-03-08 14:01:00,41.0,29.0,30.51,South,191,0.0,0.0,61,0.00,,,0.01,,2013-03-08 19:01:00,
2013-03-08 14:11:00,41.0,29.0,30.51,South,191,0.0,0.0,61,0.00,,,0.01,,2013-03-08 19:11:00,
2013-03-08 14:22:00,41.0,28.0,30.51,East,95,0.0,0.0,59,0.00,,,0.00,,2013-03-08 19:22:00,
2013-03-08 14:32:00,41.0,28.0,30.50,SE,128,0.0,0.0,59,0.00,,,0.00,,2013-03-08 19:32:00,
2013-03-08 14:42:00,41.0,28.0,30.50,SE,128,0.0,0.0,59,0.00,,,0.00,,2013-03-08 19:42:00,
2013-03-08 14:52:00,42.0,28.0,30.50,East,82,5.0,10.0,58,0.00,,,0.00,,2013-03-08 19:52:00,
2013-03-08 15:01:00,43.0,29.0,30.50,NE,50,1.0,6.0,57,0.00,,,0.00,,2013-03-08 20:01:00,
2013-03-08 15:11:00,43.0,29.0,30.50,NE,50,1.0,6.0,57,0.00,,,0.00,,2013-03-08 20:11:00,
2013-03-08 15:22:00,43.0,28.0,30.49,East,94,3.0,5.0,55,0.00,,,0.00,,2013-03-08 20:22:00,
2013-03-08 15:32:00,43.0,28.0,30.49,East,94,3.0,6.0,55,0.00,,,0.00,,2013-03-08 20:32:00,
2013-03-08 15:42:00,43.0,28.0,30.49,East,94,3.0,6.0,55,0.00,,,0.00,,2013-03-08 20:42:00,
2013-03-08 15:53:00,43.0,27.0,30.48,NNE,15,6.0,7.0,53,0.00,,,0.00,,2013-03-08 20:53:00,
2013-03-08 16:02:00,43.0,28.0,30.49,NE,44,0.0,0.0,54,0.00,,,0.00,,2013-03-08 21:02:00,
2013-03-08 16:11:00,43.0,28.0,30.49,NE,44,0.0,0.0,54,0.00,,,0.00,,2013-03-08 21:11:00,
2013-03-08 16:22:00,43.0,27.0,30.47,NE,46,1.0,9.0,53,0.00,,,0.00,,2013-03-08 21:22:00,
2013-03-08 16:32:00,43.0,27.0,30.46,ENE,62,3.0,6.0,52,0.00,,,0.00,,2013-03-08 21:32:00,
2013-03-08 16:42:00,43.0,27.0,30.46,ENE,62,3.0,6.0,52,0.00,,,0.00,,2013-03-08 21:42:00,
2013-03-08 16:52:00,43.0,26.0,30.46,NNE,32,6.0,7.0,50,0.00,,,0.00,,2013-03-08 21:52:00,
2013-03-08 17:01:00,43.0,25.0,30.45,NNE,32,3.0,6.0,48,0.00,,,0.00,,2013-03-08 22:01:00,
2013-03-08 17:11:00,43.0,25.0,30.45,NNE,32,3.0,6.0,48,0.00,,,0.00,,2013-03-08 22:11:00,
2013-03-08 17:22:00,42.0,24.0,30.45,North,349,0.0,6.0,49,0.00,,,0.00,,2013-03-08 22:22:00,
2013-03-08 17:32:00,42.0,24.0,30.45,NE,34,0.0,0.0,49,0.00,,,0.00,,2013-03-08 22:32:00,
2013-03-08 17:42:00,42.0,24.0,30.45,NE,34,0.0,0.0,49,0.00,,,0.00,,2013-03-08 22:42:00,
2013-03-08 17:53:00,42.0,24.0,30.46,East,88,0.0,0.0,49,0.00,,,0.00,,2013-03-08 22:53:00,
2013-03-08 18:01:00,42.0,24.0,30.46,East,88,0.0,0.0,49,0.00,,,0.00,,2013-03-08 23:01:00,
2013-03-08 18:12:00,42.0,24.0,30.46,East,88,0.0,0.0,49,0.00,,,0.00,,2013-03-08 23:12:00,
2013-03-08 18:22:00,41.0,23.0,30.46,ENE,58,3.0,6.0,49,0.00,,,0.00,,2013-03-08 23:22:00,
2013-03-08 18:32:00,41.0,23.0,30.46,NE,56,0.0,5.0,49,0.00,,,0.00,,2013-03-08 23:32:00,
2013-03-08 18:42:00,41.0,23.0,30.46,NE,56,0.0,5.0,49,0.00,,,0.00,,2013-03-08 23:42:00,
2013-03-08 18:53:00,41.0,24.0,30.46,NNE,21,0.0,0.0,50,0.00,,,0.00,,2013-03-08 23:53:00,
2013-03-08 19:02:00,40.0,23.0,30.45,NNE,21,0.0,0.0,50,0.00,,,0.00,,2013-03-09 00:02:00,
2013-03-08 19:11:00,40.0,23.0,30.45,NNE,21,0.0,0.0,50,0.00,,,0.00,,2013-03-09 00:11:00,
2013-03-08 19:22:00,39.0,23.0,30.45,ENE,75,2.0,5.0,53,0.00,,,0.00,,2013-03-09 00:22:00,
2013-03-08 19:32:00,39.0,24.0,30.46,NNE,25,0.0,5.0,54,0.00,,,0.00,,2013-03-09 00:32:00,
2013-03-08 19:42:00,39.0,24.0,30.46,NNE,25,0.0,5.0,54,0.00,,,0.00,,2013-03-09 00:42:00,
2013-03-08 19:52:00,38.0,23.0,30.47,NE,38,0.0,0.0,55,0.00,,,0.00,,2013-03-09 00:52:00,
2013-03-08 20:01:00,38.0,24.0,30.47,NE,38,0.0,0.0,57,0.00,,,0.00,,2013-03-09 01:01:00,
2013-03-08 20:12:00,37.0,24.0,30.47,NE,38,0.0,0.0,58,0.00,,,0.00,,2013-03-09 01:12:00,
2013-03-08 20:22:00,37.0,24.0,30.47,NE,38,0.0,0.0,58,0.00,,,0.00,,2013-03-09 01:22:00,
2013-03-08 20:32:00,37.0,24.0,30.47,NE,38,0.0,0.0,59,0.00,,,0.00,,2013-03-09 01:32:00,
2013-03-08 20:42:00,37.0,24.0,30.47,NE,38,0.0,0.0,59,0.00,,,0.00,,2013-03-09 01:42:00,
2013-03-08 20:52:00,36.0,24.0,30.49,NE,38,0.0,0.0,61,0.00,,,0.00,,2013-03-09 01:52:00,
2013-03-08 21:01:00,36.0,24.0,30.49,NE,38,0.0,0.0,61,0.00,,,0.00,,2013-03-09 02:01:00,
2013-03-08 21:11:00,36.0,24.0,30.49,NE,38,0.0,0.0,61,0.00,,,0.00,,2013-03-09 02:11:00,
2013-03-08 21:21:00,36.0,24.0,30.48,NE,38,0.0,0.0,61,0.00,,,0.00,,2013-03-09 02:21:00,
2013-03-08 21:31:00,35.0,23.0,30.47,NE,38,0.0,0.0,62,0.00,,,0.00,,2013-03-09 02:31:00,
2013-03-08 21:41:00,35.0,24.0,30.47,NE,38,0.0,0.0,63,0.00,,,0.00,,2013-03-09 02:41:00,
2013-03-08 21:51:00,35.0,24.0,30.47,NE,38,0.0,0.0,63,0.00,,,0.00,,2013-03-09 02:51:00,
2013-03-08 22:01:00,35.0,24.0,30.47,NE,49,1.0,5.0,63,0.00,,,0.00,,2013-03-09 03:01:00,
2013-03-08 22:11:00,35.0,24.0,30.47,NE,49,1.0,5.0,63,0.00,,,0.00,,2013-03-09 03:11:00,
2013-03-08 22:21:00,34.0,23.0,30.46,NNE,28,0.0,0.0,65,0.00,,,0.00,,2013-03-09 03:21:00,
2013-03-08 22:31:00,34.0,24.0,30.46,NE,54,0.0,0.0,66,0.00,,,0.00,,2013-03-09 03:31:00,
2013-03-08 22:41:00,34.0,24.0,30.46,NE,54,0.0,0.0,66,0.00,,,0.00,,2013-03-09 03:41:00,
2013-03-08 22:52:00,33.0,23.0,30.46,East,92,0.0,0.0,67,0.00,,,0.00,,2013-03-09 03:52:00,
2013-03-08 23:01:00,33.0,23.0,30.47,East,92,0.0,0.0,67,0.00,,,0.00,,2013-03-09 04:01:00,
2013-03-08 23:11:00,33.0,23.0,30.47,East,92,0.0,0.0,67,0.00,,,0.00,,2013-03-09 04:11:00,
2013-03-08 23:22:00,33.0,24.0,30.47,East,92,0.0,0.0,69,0.00,,,0.00,,2013-03-09 04:22:00,
2013-03-08 23:32:00,33.0,24.0,30.47,East,92,0.0,0.0,70,0.00,,,0.00,,2013-03-09 04:32:00,
2013-03-08 23:42:00,33.0,24.0,30.47,East,92,0.0,0.0,70,0.00,,,0.00,,2013-03-09 04:42:00,
2013-03-08 23:52:00,32.0,24.0,30.47,East,92,0.0,0.0,72,0.00,,,0.00,,2013-03-09 04:52:00,